COSMOS 1392

导读

COSMOS 1392(宇宙1392)是苏联(CIS,即独联体前身)于1982年7月21日8点发射的“宇宙”系列卫星。该系列卫星多承担空间物理探测、军事应用等任务,作为苏联航天计划的组成部分,它在近地轨道开展相关科研或应用任务,推动了当时苏联在航天领域技术积累,是冷战时期苏联太空活动的典型产物。

基本信息
目录编号:
13379
目录名称:
COSMOS 1392
国际标识:
1982-073E
轨道中心:
EARTH
卫星名称:
COSMOS 1392
卫星全名:
--
卫星状态:
在轨 (已飞行16035 天)
发射日期:
1982-07-21 UTC
国别 :
俄罗斯(独联体) (CIS)
星等 :
--
轨道信息
数据来源 国际轨道数据
星历时间: 2026-06-15T07:25:45+0800
8小时前
查看轨道信息
半长轴: 7845.188km
偏心率: 0.0009512
轨道倾角: 74.016°
近地点辐角 188.803°
升交点赤经 346.260°
平近点角 291.747°
近地点: 1459.588km
远地点: 1474.514km
周期: 115.256分钟
每日圈数: 12.493893
详细信息
使用方式:
暂无
2D轨道图
3D轨道图
轨道高度分析图
轨道倾角分析图
轨道综合分析图
查看轨道综合分析图